Location: Recife
(8.0585°S, 34.8848°W)
Time: 04:22:17
(UTC-03:00)

Courier 1B - Pass Details

Date: 18 April 2026
Orbit: 962 x 1209 km, 28.3° (Epoch: 14 May)

Event Time Altitude Azimuth Distance (km) Brightness Sun altitude
Rises 02:37:39 0° 317° (NW) 3,805 - -41.0°
Reaches altitude 10° 02:40:30 10° 325° (NW) 2,892 - -40.3°
Maximum altitude 02:47:02 39° 32° (NNE) 1,622 - -38.7°
Exits shadow 02:47:12 39° 35° (NE) 1,624 8.8 -38.6°
Drops below altitude 10° 02:53:57 10° 98° (E) 3,065 10.8 -37.0°
Sets 02:57:03 0° 105° (ESE) 4,058 11.6 -36.2°
